User: anonymous   Login
Location: Arbon
(43.0005°N, 0.7472°E)
Time: 09:43:22
(UTC+00:00)
Language:

Cosmos 1937 Rocket - Orbit

View from above orbital plane
View from above orbital plane
View from above satellite
View from above satellite

Ground track
Ground track

The orbit data is extracted from the following two-line orbital elements,

1 19039U 88029B   20293.93909625 +.00000055 +00000-0 +26578-4 0  9990
2 19039 074.0489 211.2189 0022462 081.2065 279.1632 14.38489041706373
Epoch (UTC): 19 October 2020 22:32:17
Eccentricity: 0.0022462
inclination: 74.0489°
perigee height: 747 km
apogee height: 779 km
right ascension of ascending node: 211.2189°
argument of perigee: 81.2065°
revolutions per day: 14.38489041
mean anomaly at epoch: 279.1632°
orbit number at epoch: 70637

The dashed part of the orbit path shows where the satellite is in the earth's shadow,  

DLR